Temperature
19 19 18 18 18 18 18 19 19 19 19 20 19 18 17 16 15 14 13 12 12 12 12 12 12 12 12 12 12 12 11 11 11 11 11 11 10 10 10 10 10 10 9 9
18 18 18 17 18 18 18 18 18 18 19 19 18 17 16 15 14 13 13 12 12 12 12 12 12 12 12 12 12 11 11 11 11 11 10 10 10 10 10 9 9 9 9 9
18 18 17 17 18 18 18 18 18 18 18 18 17 16 16 15 14 13 13 12 12 11 11 11 11 11 11 11 11 11 11 10 10 10 10 10 10 9 9 9 9 9 9 9
17 17 16 18 18 17 17 17 17 17 17 17 16 15 14 14 14 13 12 12 11 11 11 11 11 11 11 10 10 10 10 10 10 10 10 10 9 9 9 9 9 9 9 8
17 17 17 18 17 16 17 17 17 17 16 16 15 14 15 14 13 12 12 11 11 11 11 11 11 10 10 10 10 10 10 10 10 10 9 9 9 9 9 8 8 8 8 8
16 16 16 17 17 16 16 17 17 16 16 15 15 16 16 13 12 12 12 11 11 11 10 10 10 10 10 10 10 10 10 9 9 9 9 9 9 8 8 8 8 8 8 8
16 16 17 17 15 15 16 17 16 16 15 15 15 16 14 12 12 11 11 11 11 10 10 10 10 10 10 9 9 9 9 9 8 8 8 8 8 8 8 8 8 8 8 8
15 15 16 15 15 16 17 16 15 15 14 14 14 13 12 11 11 11 11 10 10 10 10 10 9 9 9 9 9 9 8 8 8 8 8 8 8 8 8 8 7 7 7 7
16 16 16 14 15 15 14 15 15 14 14 13 12 12 11 11 11 10 10 10 10 10 9 9 9 9 9 9 8 8 8 8 8 7 7 7 7 7 7 7 7 7 7 7
15 15 14 13 13 13 13 13 13 13 12 12 12 12 11 11 10 10 10 10 9 9 9 9 9 9 8 8 8 8 8 7 7 7 7 7 6 7 7 7 7 6 6 6
14 15 14 13 13 13 12 12 12 12 12 12 11 11 11 10 10 10 9 9 9 9 9 8 8 8 8 8 8 7 7 7 7 6 6 6 6 6 6 6 6 6 6 6
14 15 15 14 13 12 12 12 12 12 11 11 11 11 10 10 10 9 9 9 9 8 8 8 8 8 8 8 7 7 7 6 6 6 6 6 6 6 6 6 6 6 6 6
13 12 12 12 12 12 12 12 11 11 11 11 10 10 10 10 9 9 9 8 8 8 8 8 8 7 8 7 7 7 6 6 6 6 6 6 6 6 6 6 5 5 5 5
11 11 11 11 11 11 11 11 11 11 10 10 10 10 9 9 9 9 8 8 8 8 7 7 7 7 7 7 7 6 6 6 6 6 6 5 5 5 5 5 5 5 5 5
10 10 10 11 11 11 10 10 10 10 10 10 10 9 9 9 9 8 8 8 7 7 7 7 7 7 7 7 6 6 6 6 5 5 5 5 5 5 5 5 4 4 4 4
10 10 10 10 10 10 10 10 10 10 9 9 9 9 9 9 8 8 8 7 7 7 7 7 7 7 6 6 6 6 5 5 5 5 5 5 5 4 4 4 4 4 4 4
9 9 9 10 10 9 9 9 9 9 9 9 9 9 8 8 8 8 7 7 7 7 7 7 6 6 6 6 6 5 5 5 5 4 4 4 4 4 4 4 4 4 3 3
9 9 9 9 9 9 9 9 9 9 9 9 8 8 8 8 8 7 7 7 7 6 6 6 6 6 6 6 5 5 5 5 4 4 4 4 4 4 3 3 3 3 3 3
9 9 9 9 9 9 9 9 9 8 8 8 8 8 8 8 7 7 7 6 6 6 6 6 6 6 5 5 5 5 5 4 4 4 4 4 3 3 3 3 3 3 2 2
8 8 8 8 8 8 8 8 8 8 8 8 8 7 7 7 7 7 6 6 6 6 6 6 5 5 5 5 5 4 4 4 4 4 3 3 3 3 3 2 2 2 2 2
8 8 8 8 8 8 8 8 8 8 8 7 7 7 7 7 6 6 6 6 6 6 6 5 5 5 5 5 5 4 4 4 3 3 3 3 3 2 2 2 2 2 2 2
7 7 7 7 7 7 8 8 8 8 7 7 7 7 7 6 6 6 6 6 6 6 5 5 5 5 5 5 4 4 4 3 3 3 3 3 2 2 2 2 2 1 1 1
7 7 7 7 7 7 7 7 7 7 7 7 7 7 7 6 6 6 6 6 6 5 5 5 5 5 5 4 4 4 3 3 3 3 3 3 2 2 2 2 1 1 1 1
6 6 6 6 6 6 6 7 7 7 7 7 7 7 6 6 6 6 6 6 5 5 5 5 5 5 4 4 4 3 3 3 3 3 3 2 2 2 2 1 1 1 1 1
6 6 6 6 6 6 6 6 6 6 6 6 6 6 6 6 6 6 6 5 5 5 5 4 4 4 4 3 3 3 3 3 3 3 2 2 2 2 1 1 1 1 1 1
6 6 6 6 6 6 6 6 6 6 6 6 6 6 6 6 5 5 5 5 5 5 4 4 4 3 3 3 3 3 3 3 2 2 2 2 1 1 1 1 1 0 0 0
5 5 5 5 5 5 5 5 5 5 5 6 5 5 5 5 5 5 5 5 4 4 4 4 3 3 3 3 3 2 2 2 2 2 2 1 1 1 1 1 0 0 0 0
Wind_Speed
8 6 7 9 10 11 13 13 13 13 13 11 8 7 6 5 4 3 3 3 3 3 2 1 2 2 2 2 2 3 4 4 4 4 3 3 3 3 2 2 2 2 1 1
9 7 7 10 11 12 13 13 14 15 14 8 7 6 6 5 4 4 4 4 3 3 2 2 2 2 2 2 3 3 4 3 3 3 3 3 3 3 2 2 2 1 1 1
9 6 7 11 10 11 10 10 11 13 11 7 7 6 6 6 5 6 5 4 3 3 3 2 2 2 3 3 3 3 3 3 3 3 3 3 3 3 3 3 2 2 2 1
7 7 10 5 2 5 8 9 10 10 9 8 8 7 6 6 5 5 4 4 3 3 3 3 2 2 3 3 3 3 2 2 2 3 3 3 3 3 3 3 3 2 2 2
6 9 10 7 4 4 7 9 8 9 9 7 4 5 6 4 4 4 4 3 3 3 3 3 3 3 3 3 3 3 3 2 2 3 3 3 3 3 3 3 3 3 3 2
7 8 8 4 2 3 5 8 4 6 7 6 5 7 4 1 2 3 3 2 2 2 2 3 2 3 4 4 4 3 3 2 2 2 3 3 3 3 3 3 3 3 2 3
10 10 8 3 2 4 6 4 1 4 6 6 7 6 3 1 2 2 2 2 2 2 2 2 3 4 4 4 4 3 3 2 2 2 2 2 3 3 3 3 3 3 2 2
8 9 8 3 4 6 6 4 4 5 5 6 6 4 3 3 2 2 2 2 2 2 2 2 3 4 4 4 3 3 3 2 2 2 2 2 2 2 2 2 2 2 2 2
7 7 4 4 6 6 6 7 6 5 5 5 5 5 5 4 3 3 3 2 2 2 2 2 3 3 4 3 3 3 3 3 3 2 2 2 2 2 2 2 2 2 2 2
8 10 9 9 9 9 8 9 7 6 5 5 6 5 5 4 4 3 3 3 3 2 2 2 2 3 3 3 3 4 4 4 3 3 2 2 2 2 2 2 2 2 2 2
12 12 10 10 10 9 8 8 7 7 6 6 6 6 5 4 4 3 3 3 3 3 3 2 2 3 3 3 4 4 4 3 3 3 2 2 2 1 2 2 2 3 3 3
10 9 8 9 7 7 8 8 7 6 6 6 6 6 5 4 4 3 3 3 3 3 2 2 2 3 3 4 5 4 4 3 3 2 2 2 2 1 2 1 1 2 3 3
11 9 10 10 10 8 8 7 7 6 6 6 5 5 5 4 4 3 4 4 4 4 3 3 3 3 3 4 5 5 4 3 3 2 2 2 2 2 1 1 1 2 3 3
11 10 11 10 9 7 7 7 6 6 6 6 5 4 4 4 4 4 4 4 4 4 3 3 3 3 3 4 5 5 4 3 3 3 3 3 3 3 2 2 2 2 2 3
10 10 10 9 7 6 5 5 5 5 4 4 4 4 5 5 5 4 4 4 4 4 4 4 4 3 3 4 4 4 3 3 3 3 3 3 3 3 3 3 3 2 2 1
9 9 9 8 8 6 6 5 5 5 5 5 5 5 5 5 4 4 4 4 4 5 4 4 4 4 3 4 4 3 3 3 3 3 3 3 3 3 3 3 3 3 3 2
8 8 8 8 8 8 7 7 6 6 6 6 6 6 5 5 4 4 4 4 4 4 4 4 4 3 4 4 4 3 3 3 3 3 3 3 3 3 3 3 3 3 3 2
10 10 9 9 8 8 7 7 7 6 6 6 5 5 6 6 6 5 5 4 4 4 4 4 3 4 4 4 3 3 2 3 3 3 2 2 3 3 3 4 4 4 3 2
7 8 9 9 9 8 7 7 7 6 6 5 6 7 7 6 6 5 5 5 5 5 4 4 4 5 5 4 3 3 3 3 3 3 2 2 3 3 3 3 4 4 3 3
6 6 7 7 7 7 7 7 6 6 6 6 6 6 6 6 6 6 5 5 5 4 4 4 5 5 5 4 4 3 4 4 3 3 3 3 3 3 3 3 4 3 3 3
5 5 5 5 6 6 6 6 6 6 6 6 7 7 7 6 6 6 6 5 5 4 4 5 5 4 4 4 5 4 4 4 4 3 3 3 3 3 3 4 4 4 4 4
5 5 5 5 5 5 5 5 5 6 6 6 6 6 6 6 6 6 6 5 4 4 4 4 4 4 4 5 4 4 4 4 4 3 3 3 4 4 4 4 4 4 4 4
5 5 5 5 5 5 5 5 5 5 6 6 6 6 6 6 5 5 5 4 4 5 5 4 4 5 6 5 4 4 4 4 4 4 4 4 4 4 4 4 4 4 4 4
5 5 5 5 4 4 4 4 4 3 4 4 5 6 6 5 4 5 4 4 5 5 4 4 5 6 6 4 4 4 4 4 4 4 4 4 4 4 4 4 4 4 5 6
5 5 4 4 4 4 4 3 3 3 3 3 3 4 4 4 4 4 4 4 6 6 4 4 6 6 5 4 4 4 4 4 4 4 4 4 4 4 4 4 4 5 5 5
5 4 4 4 4 3 3 3 3 3 2 2 2 2 3 2 3 3 3 4 5 5 4 3 4 5 4 4 4 4 4 4 4 4 5 4 5 5 5 5 6 5 5 5
4 4 3 3 3 3 2 3 3 3 3 3 2 2 2 2 3 3 4 3 4 4 3 3 4 4 4 4 4 4 3 3 4 4 4 4 4 5 5 5 5 5 5 6
Wind_Direction
263 269 256 256 247 237 240 250 260 270 274 277 278 281 286 283 275 266 261 252 243 240 239 227 200 185 176 180 171 172 177 186 192 195 191 186 187 194 193 199 213 219 228 248
260 253 252 261 255 245 245 251 257 266 272 277 277 275 277 272 262 257 258 254 253 252 244 230 212 193 182 185 177 176 180 188 191 192 191 189 190 191 188 195 210 213 228 242
264 258 264 257 246 237 238 240 249 261 271 273 273 274 274 269 253 252 256 255 247 247 243 241 238 222 203 192 175 177 182 182 185 187 193 197 194 192 196 204 213 224 234 241
264 260 252 258 220 238 245 251 251 260 272 270 273 279 274 261 252 255 253 248 245 241 238 243 239 225 208 188 176 178 178 181 189 189 194 199 197 199 210 212 215 225 228 225
246 256 264 259 233 225 245 263 251 253 264 267 273 276 259 240 249 259 255 248 245 236 231 230 226 214 196 187 183 179 177 186 199 201 196 198 201 209 216 216 218 225 228 232
239 253 256 259 189 211 248 259 240 246 256 251 245 267 269 233 257 261 259 247 239 231 221 220 215 206 202 198 194 192 190 198 203 204 204 203 210 218 218 216 222 225 231 237
240 250 257 262 165 187 236 281 297 258 257 247 249 281 311 268 255 258 252 238 229 221 221 222 206 203 208 205 207 200 192 189 194 201 209 208 212 215 211 210 215 224 230 240
228 241 249 163 174 223 276 317 287 270 262 255 259 275 266 248 242 237 235 223 216 220 226 219 205 205 209 212 206 187 183 186 196 203 205 210 205 202 205 201 208 227 237 248
232 246 284 213 237 270 295 284 280 270 265 255 251 252 245 243 236 228 226 223 231 227 222 218 213 210 210 208 191 184 186 190 195 196 202 213 207 196 195 202 217 234 239 251
252 257 267 264 263 270 275 274 273 267 257 244 243 242 235 235 233 229 229 229 224 219 215 227 228 217 213 187 184 191 193 193 193 191 197 212 216 205 204 207 216 231 240 251
258 266 272 263 259 270 276 274 270 261 252 243 239 239 233 231 232 232 232 225 222 221 222 225 227 216 197 183 187 193 193 192 194 192 199 205 209 235 233 230 242 245 250 255
259 266 269 278 277 275 271 268 263 258 256 247 240 235 231 232 232 226 219 215 219 228 230 223 219 215 193 189 190 189 188 189 190 194 201 206 205 214 23 307 333 285 289 284
267 278 280 283 281 274 272 269 266 257 250 244 237 229 229 230 231 226 220 216 218 220 223 219 212 213 202 193 192 195 195 189 189 200 204 209 218 227 250 296 230 233 243 261
261 267 273 270 272 274 271 268 265 256 248 241 233 223 222 228 230 226 222 222 217 209 212 213 211 213 206 198 194 196 196 191 196 204 210 216 226 236 244 251 268 271 238 231
259 261 265 275 273 269 262 257 255 250 244 238 232 227 223 225 228 229 225 217 206 204 208 208 209 213 202 199 199 197 198 201 205 208 214 220 226 235 245 253 261 271 282 255
263 265 261 259 258 257 254 249 246 242 238 235 232 230 229 226 226 226 219 207 202 209 213 211 213 209 200 198 197 200 204 191 207 213 217 222 226 232 242 250 258 265 270 278
257 261 260 260 257 254 252 253 251 244 241 240 235 229 223 218 218 221 218 211 212 218 217 214 216 205 197 196 196 201 203 191 193 211 219 225 229 234 239 242 250 261 267 278
251 257 261 262 260 258 259 261 257 249 244 244 235 227 222 221 222 221 216 212 212 219 222 216 210 199 195 198 201 205 201 197 205 215 222 228 237 244 246 248 254 261 271 267
267 264 265 264 262 259 258 259 255 250 246 235 230 229 231 231 226 220 216 214 215 222 227 215 196 199 200 198 201 199 199 203 209 217 223 222 234 242 247 252 256 259 264 267
288 281 272 268 266 263 260 258 252 247 240 231 229 229 230 229 223 217 215 220 226 228 223 209 201 204 205 201 195 201 203 206 212 219 228 235 239 246 250 254 258 259 260 264
296 291 281 270 266 265 261 256 247 242 238 229 226 225 226 223 219 217 215 224 227 216 210 197 202 205 205 197 195 207 209 213 217 222 228 235 241 245 248 252 255 257 259 261
299 292 287 282 276 273 266 256 247 240 235 230 227 223 218 218 217 221 225 230 221 191 195 201 206 202 199 193 200 209 214 218 224 228 232 236 239 243 247 250 251 254 258 261
297 293 287 281 275 274 273 261 248 238 231 226 221 217 217 216 214 216 226 222 207 191 198 205 201 192 196 201 208 212 215 220 226 232 236 238 241 244 246 249 252 256 259 260
293 294 292 287 280 270 264 262 255 243 233 232 229 223 218 214 219 222 223 192 191 187 203 197 190 195 202 208 211 215 219 224 230 236 239 240 242 244 246 248 252 256 257 259
289 287 285 281 274 270 267 263 253 242 230 228 230 228 226 220 218 212 206 197 186 187 204 194 190 198 206 211 213 221 226 228 233 238 239 239 241 243 245 248 251 256 258 260
287 285 283 278 278 273 265 250 243 238 226 224 231 226 215 203 199 200 200 197 194 191 199 197 195 199 209 215 218 223 227 229 231 236 240 242 244 247 249 250 254 256 259 262
289 292 293 294 293 282 269 254 247 242 232 224 231 225 203 195 193 191 187 185 186 190 196 198 199 203 209 215 220 225 230 233 236 238 242 244 246 248 250 253 255 256 259 261
Height
1510 1510 1511 1512 1511 1513 1513 1510 1510 1505 1504 1503 1505 1508 1510 1510 1511 1511 1511 1511 1510 1510 1510 1510 1510 1510 1511 1511 1512 1513 1514 1515 1516 1517 1518 1518 1519 1519 1520 1520 1520 1520 1520 1519
1511 1510 1511 1512 1509 1509 1509 1508 1506 1505 1503 1503 1505 1507 1508 1508 1509 1509 1508 1509 1508 1508 1508 1508 1508 1509 1509 1509 1510 1511 1512 1512 1513 1514 1515 1515 1516 1516 1517 1517 1517 1517 1517 1517
1510 1509 1510 1509 1503 1504 1504 1504 1505 1503 1501 1502 1503 1505 1505 1506 1506 1506 1507 1507 1506 1506 1506 1506 1506 1506 1507 1507 1508 1509 1509 1510 1511 1511 1512 1513 1513 1514 1514 1514 1515 1514 1515 1515
1510 1511 1514 1501 1500 1501 1502 1502 1502 1501 1501 1502 1502 1503 1504 1504 1504 1504 1504 1504 1504 1504 1504 1504 1504 1505 1505 1505 1506 1506 1507 1508 1508 1508 1509 1510 1510 1511 1511 1512 1512 1512 1512 1512
1510 1509 1503 1499 1500 1502 1501 1498 1498 1499 1499 1501 1501 1501 1500 1501 1501 1501 1501 1501 1502 1502 1502 1502 1502 1502 1503 1503 1503 1504 1504 1505 1505 1506 1506 1507 1507 1507 1508 1509 1509 1509 1509 1509
1509 1510 1505 1497 1498 1500 1501 1497 1495 1496 1497 1498 1499 1497 1495 1498 1498 1498 1499 1499 1499 1498 1499 1499 1499 1500 1500 1501 1501 1501 1501 1502 1503 1503 1504 1504 1504 1505 1505 1506 1506 1507 1506 1506
1506 1504 1496 1495 1498 1500 1502 1495 1494 1494 1495 1496 1496 1495 1496 1496 1496 1496 1496 1496 1496 1495 1495 1496 1496 1497 1497 1498 1498 1498 1499 1499 1500 1501 1501 1501 1502 1502 1503 1503 1504 1504 1504 1504
1503 1504 1499 1495 1497 1497 1493 1492 1493 1493 1493 1494 1494 1494 1494 1494 1493 1493 1493 1493 1493 1493 1493 1493 1493 1494 1494 1495 1495 1496 1496 1497 1497 1498 1498 1499 1499 1500 1500 1501 1502 1502 1502 1501
1497 1496 1492 1494 1494 1493 1493 1492 1492 1492 1492 1492 1492 1492 1492 1492 1492 1491 1491 1491 1491 1490 1490 1490 1491 1491 1491 1492 1492 1493 1494 1494 1495 1495 1496 1496 1497 1497 1498 1499 1499 1499 1499 1499
1495 1491 1492 1492 1492 1491 1491 1490 1490 1489 1489 1489 1489 1489 1490 1490 1489 1489 1489 1489 1488 1488 1488 1488 1488 1488 1489 1489 1489 1490 1491 1492 1492 1493 1493 1494 1495 1495 1496 1496 1496 1497 1496 1496
1491 1489 1489 1488 1488 1488 1487 1487 1486 1486 1486 1486 1486 1487 1487 1487 1487 1487 1487 1486 1486 1486 1486 1486 1485 1485 1486 1486 1487 1488 1489 1489 1490 1490 1491 1492 1492 1493 1493 1494 1494 1494 1494 1493
1486 1485 1485 1484 1484 1485 1484 1483 1483 1483 1483 1483 1484 1484 1484 1485 1485 1485 1484 1484 1484 1484 1484 1483 1484 1483 1483 1484 1485 1485 1486 1487 1487 1488 1488 1489 1490 1490 1490 1491 1491 1491 1490 1490
1485 1484 1483 1482 1481 1481 1481 1480 1480 1480 1480 1480 1480 1481 1481 1481 1482 1482 1482 1482 1482 1482 1482 1482 1481 1481 1481 1482 1482 1483 1484 1484 1485 1486 1486 1487 1487 1487 1487 1488 1487 1487 1487 1487
1481 1481 1479 1478 1478 1477 1477 1477 1476 1476 1476 1476 1477 1477 1478 1478 1478 1478 1479 1479 1480 1480 1479 1479 1479 1479 1479 1480 1480 1481 1482 1482 1483 1483 1484 1484 1485 1485 1485 1484 1484 1483 1483 1483
1477 1476 1475 1475 1474 1474 1473 1473 1473 1473 1473 1473 1474 1474 1475 1475 1475 1476 1476 1476 1476 1476 1476 1477 1477 1477 1477 1477 1478 1479 1479 1480 1480 1481 1481 1482 1482 1482 1482 1482 1481 1481 1480 1480
1472 1471 1471 1470 1470 1470 1470 1470 1469 1469 1470 1470 1470 1471 1472 1472 1472 1473 1473 1473 1473 1473 1473 1474 1474 1474 1475 1475 1476 1476 1476 1477 1477 1478 1479 1479 1479 1479 1479 1479 1479 1478 1478 1477
1467 1466 1466 1466 1466 1466 1466 1466 1466 1466 1466 1466 1467 1467 1468 1468 1469 1469 1469 1470 1470 1471 1471 1471 1471 1472 1472 1472 1473 1474 1474 1474 1475 1475 1476 1476 1476 1476 1477 1476 1476 1475 1475 1474
1463 1463 1463 1463 1462 1462 1462 1462 1462 1462 1462 1462 1463 1463 1464 1464 1465 1465 1466 1467 1467 1467 1467 1468 1468 1468 1469 1470 1470 1471 1471 1472 1472 1473 1473 1473 1473 1473 1474 1473 1473 1472 1471 1471
1458 1458 1458 1458 1458 1458 1457 1457 1457 1458 1458 1458 1459 1459 1460 1461 1461 1462 1462 1463 1463 1463 1464 1464 1465 1466 1466 1467 1467 1468 1468 1469 1469 1470 1470 1470 1470 1470 1470 1470 1469 1469 1468 1467
1454 1454 1454 1454 1454 1453 1453 1453 1453 1453 1454 1454 1454 1455 1456 1456 1457 1458 1459 1459 1459 1460 1461 1462 1462 1463 1463 1464 1464 1465 1465 1466 1466 1466 1466 1466 1466 1466 1466 1466 1465 1465 1464 1464
1450 1450 1449 1449 1449 1449 1448 1448 1448 1448 1449 1450 1450 1450 1451 1452 1453 1454 1455 1455 1456 1457 1458 1458 1459 1459 1460 1460 1461 1462 1462 1462 1462 1463 1463 1463 1463 1463 1462 1462 1462 1461 1461 1460
1447 1447 1446 1445 1444 1444 1444 1444 1444 1444 1445 1445 1446 1447 1447 1448 1449 1450 1451 1452 1453 1453 1454 1454 1455 1456 1456 1457 1457 1458 1458 1458 1458 1459 1459 1459 1459 1458 1458 1458 1457 1457 1456 1456
1445 1444 1442 1441 1441 1440 1440 1440 1440 1440 1440 1441 1442 1442 1443 1444 1445 1446 1447 1448 1449 1449 1450 1450 1451 1452 1452 1453 1453 1453 1454 1454 1454 1454 1454 1454 1454 1454 1453 1453 1453 1452 1452 1451
1441 1440 1439 1438 1437 1437 1436 1436 1436 1436 1437 1437 1438 1439 1440 1440 1441 1442 1443 1444 1445 1445 1446 1446 1447 1448 1449 1449 1449 1449 1449 1449 1450 1450 1450 1450 1449 1449 1449 1449 1448 1448 1447 1446
1438 1437 1436 1435 1434 1433 1433 1433 1433 1433 1433 1433 1434 1435 1436 1436 1437 1438 1439 1440 1441 1441 1442 1442 1443 1444 1444 1445 1445 1445 1445 1445 1445 1445 1445 1445 1445 1444 1444 1444 1443 1443 1442 1441
1435 1434 1433 1432 1431 1430 1430 1430 1430 1429 1430 1430 1430 1431 1432 1432 1433 1434 1435 1435 1436 1437 1438 1438 1439 1440 1440 1440 1440 1441 1441 1441 1441 1441 1441 1440 1440 1440 1439 1439 1439 1438 1437 1437
1432 1431 1430 1429 1428 1428 1427 1427 1427 1426 1426 1427 1427 1428 1428 1429 1429 1430 1430 1431 1431 1432 1433 1434 1435 1435 1436 1436 1436 1436 1436 1436 1436 1436 1436 1436 1435 1435 1435 1434 1434 1433 1433 1432